Year,Month,Day,Hour,Minute,Value (Times are PST for windgust in km/hr)
2019,04,08,02,58,3.20
2019,04,08,02,59,1.60
2019,04,08,03,00,1.60
2019,04,08,03,02,1.60
2019,04,08,05,29,1.60
2019,04,08,06,32,3.20
2019,04,08,06,33,3.20
2019,04,08,06,34,3.20
2019,04,08,06,35,1.60
2019,04,08,06,36,1.60
2019,04,08,06,55,1.60
2019,04,08,08,54,1.60
2019,04,08,09,51,3.20
2019,04,08,09,52,3.20
2019,04,08,10,30,8.10
2019,04,08,10,31,6.40
2019,04,08,10,32,6.40
2019,04,08,10,33,4.80
2019,04,08,10,34,4.80
2019,04,08,11,43,6.40
2019,04,08,11,44,8.10
2019,04,08,11,45,8.10
2019,04,08,11,46,6.40
2019,04,08,11,47,8.10
2019,04,08,11,48,4.80
2019,04,08,11,49,8.10
2019,04,08,11,50,6.40
2019,04,08,11,51,6.40
2019,04,08,11,52,6.40
2019,04,08,11,53,8.10
2019,04,08,11,54,6.40
2019,04,08,11,55,6.40
2019,04,08,11,56,6.40
2019,04,08,11,57,8.10
2019,04,08,11,58,6.40
2019,04,08,11,59,6.40
2019,04,08,12,00,6.40
2019,04,08,12,01,6.40
2019,04,08,12,02,8.10
2019,04,08,12,03,9.60
2019,04,08,12,04,6.40
2019,04,08,12,05,4.80
2019,04,08,12,06,4.80
2019,04,08,12,07,9.60
2019,04,08,12,08,4.80
2019,04,08,12,09,6.40
2019,04,08,12,10,6.40
2019,04,08,12,11,6.40
2019,04,08,12,12,4.80
2019,04,08,12,13,6.40
2019,04,08,12,14,6.40
2019,04,08,12,15,6.40
2019,04,08,12,16,8.10
2019,04,08,12,17,11.30
2019,04,08,12,18,6.40
2019,04,08,12,19,8.10
2019,04,08,12,20,6.40
2019,04,08,12,21,6.40
2019,04,08,12,22,8.10
2019,04,08,12,23,4.80
2019,04,08,12,24,8.10
2019,04,08,12,25,3.20
2019,04,08,12,26,4.80
2019,04,08,12,27,8.10
2019,04,08,12,28,6.40
2019,04,08,12,29,1.60
2019,04,08,12,30,8.10
2019,04,08,12,31,9.60
2019,04,08,12,32,8.10
2019,04,08,12,33,6.40
2019,04,08,12,34,6.40
2019,04,08,12,35,6.40
2019,04,08,12,36,9.60
2019,04,08,12,37,6.40
2019,04,08,12,38,6.40
2019,04,08,12,39,6.40
2019,04,08,12,40,6.40
2019,04,08,12,41,4.80
2019,04,08,12,42,6.40
2019,04,08,12,43,11.30
2019,04,08,12,44,12.90
2019,04,08,12,45,8.10
2019,04,08,12,46,11.30
2019,04,08,12,47,12.90
2019,04,08,12,48,11.30
2019,04,08,12,49,4.80
2019,04,08,12,50,14.50
2019,04,08,12,51,14.50
2019,04,08,12,52,14.50
2019,04,08,12,53,14.50
2019,04,08,12,54,14.50
2019,04,08,12,55,14.50
2019,04,08,12,56,12.90
2019,04,08,12,57,12.90
2019,04,08,12,58,14.50
2019,04,08,12,59,12.90
2019,04,08,13,00,14.50
2019,04,08,13,01,11.30
2019,04,08,13,02,14.50
2019,04,08,13,03,14.50
2019,04,08,13,04,14.50
2019,04,08,13,05,14.50
2019,04,08,13,06,12.90
2019,04,08,13,07,14.50
2019,04,08,13,08,14.50
2019,04,08,13,09,11.30
2019,04,08,13,10,14.50
2019,04,08,13,11,14.50
2019,04,08,13,12,14.50
2019,04,08,13,13,11.30
2019,04,08,13,14,12.90
2019,04,08,13,15,12.90
2019,04,08,13,16,12.90
2019,04,08,13,17,14.50
2019,04,08,13,18,11.30
2019,04,08,13,19,12.90
2019,04,08,13,20,12.90
2019,04,08,13,21,11.30
2019,04,08,13,22,11.30
2019,04,08,13,23,14.50
2019,04,08,13,24,12.90
2019,04,08,13,25,14.50
2019,04,08,13,26,12.90
2019,04,08,13,27,14.50
2019,04,08,13,28,12.90
2019,04,08,13,29,12.90
2019,04,08,13,30,12.90
2019,04,08,13,31,12.90
2019,04,08,13,32,11.30
2019,04,08,13,33,11.30
2019,04,08,13,34,11.30
2019,04,08,13,35,14.50
2019,04,08,13,36,14.50
2019,04,08,13,37,12.90
2019,04,08,13,38,11.30
2019,04,08,13,39,12.90
2019,04,08,13,40,11.30
2019,04,08,13,41,12.90
2019,04,08,13,42,12.90
2019,04,08,13,43,9.60
2019,04,08,13,44,12.90
2019,04,08,13,45,11.30
2019,04,08,13,46,11.30
2019,04,08,13,47,12.90
2019,04,08,13,48,11.30
2019,04,08,13,49,14.50
2019,04,08,13,50,12.90
2019,04,08,13,51,12.90
2019,04,08,13,52,9.60
2019,04,08,13,53,9.60
2019,04,08,13,54,11.30
2019,04,08,13,55,14.50
2019,04,08,13,56,11.30
2019,04,08,13,57,8.10
2019,04,08,13,58,12.90
2019,04,08,13,59,11.30
2019,04,08,14,00,11.30
2019,04,08,14,01,12.90
2019,04,08,14,02,11.30
2019,04,08,14,03,14.50
2019,04,08,14,04,11.30
2019,04,08,14,05,11.30
2019,04,08,14,06,9.60
2019,04,08,14,07,6.40
2019,04,08,14,08,6.40
2019,04,08,14,09,6.40
2019,04,08,14,10,6.40
2019,04,08,14,11,6.40
2019,04,08,14,12,4.80
2019,04,08,14,13,9.60
2019,04,08,14,14,9.60
2019,04,08,14,15,9.60
2019,04,08,14,16,6.40
2019,04,08,14,17,6.40
2019,04,08,14,18,9.60
2019,04,08,14,19,6.40
2019,04,08,14,20,6.40
2019,04,08,14,21,6.40
2019,04,08,14,22,6.40
2019,04,08,14,23,6.40
2019,04,08,14,24,6.40
2019,04,08,14,25,6.40
2019,04,08,14,26,4.80
2019,04,08,14,27,6.40
2019,04,08,14,28,9.60
2019,04,08,14,29,9.60
2019,04,08,14,30,9.60
2019,04,08,14,31,6.40
2019,04,08,14,32,9.60
2019,04,08,14,33,9.60
2019,04,08,14,34,8.10
2019,04,08,14,35,6.40
2019,04,08,14,36,6.40
2019,04,08,14,37,6.40
2019,04,08,14,38,8.10
2019,04,08,14,39,8.10
2019,04,08,14,40,8.10
2019,04,08,14,41,8.10
2019,04,08,14,42,6.40
2019,04,08,14,43,6.40
2019,04,08,14,44,6.40
2019,04,08,14,45,9.60
2019,04,08,14,46,9.60
2019,04,08,14,47,9.60
2019,04,08,14,48,9.60
2019,04,08,14,49,9.60
2019,04,08,14,50,9.60
2019,04,08,14,51,8.10
2019,04,08,14,52,9.60
2019,04,08,14,53,9.60
2019,04,08,14,54,8.10
2019,04,08,14,55,9.60
2019,04,08,14,56,9.60
2019,04,08,14,57,11.30
2019,04,08,14,58,11.30
2019,04,08,14,59,11.30
2019,04,08,15,00,11.30
2019,04,08,15,01,11.30
2019,04,08,15,02,12.90
2019,04,08,15,03,11.30
2019,04,08,15,04,11.30
2019,04,08,15,05,11.30
2019,04,08,15,06,11.30
2019,04,08,15,07,12.90
2019,04,08,15,08,14.50
2019,04,08,15,09,16.10
2019,04,08,15,10,16.10
2019,04,08,15,11,17.70
2019,04,08,15,12,16.10
2019,04,08,15,13,17.70
2019,04,08,15,14,19.30
2019,04,08,15,15,19.30
2019,04,08,15,16,22.50
2019,04,08,15,17,22.50
2019,04,08,15,18,20.90
2019,04,08,15,19,17.70
2019,04,08,15,20,24.20
2019,04,08,15,21,22.50
2019,04,08,15,22,22.50
2019,04,08,15,23,20.90
2019,04,08,15,24,20.90
2019,04,08,15,25,22.50
2019,04,08,15,26,22.50
2019,04,08,15,27,20.90
2019,04,08,15,28,17.70
2019,04,08,15,29,24.20
2019,04,08,15,30,20.90
2019,04,08,15,31,19.30
2019,04,08,15,32,22.50
2019,04,08,15,33,24.20
2019,04,08,15,34,20.90
2019,04,08,15,35,22.50
2019,04,08,15,36,20.90
2019,04,08,15,37,20.90
2019,04,08,15,38,19.30
2019,04,08,15,39,19.30
2019,04,08,15,40,24.20
2019,04,08,15,41,19.30
2019,04,08,15,42,20.90
2019,04,08,15,43,19.30
2019,04,08,15,44,16.10
2019,04,08,15,45,19.30
2019,04,08,15,46,16.10
2019,04,08,15,47,16.10
2019,04,08,15,48,14.50
2019,04,08,15,49,19.30
2019,04,08,15,50,20.90
2019,04,08,15,51,19.30
2019,04,08,15,52,17.70
2019,04,08,15,53,12.90
2019,04,08,15,54,17.70
2019,04,08,15,55,16.10
2019,04,08,15,56,16.10
2019,04,08,15,57,17.70
2019,04,08,15,58,12.90
2019,04,08,15,59,16.10
2019,04,08,16,00,12.90
2019,04,08,16,01,14.50
2019,04,08,16,02,12.90
2019,04,08,16,03,19.30
2019,04,08,16,04,19.30
2019,04,08,16,05,24.20
2019,04,08,16,06,19.30
2019,04,08,16,07,20.90
2019,04,08,16,08,24.20
2019,04,08,16,09,22.50
2019,04,08,16,10,22.50
2019,04,08,16,11,19.30
2019,04,08,16,12,20.90
2019,04,08,16,13,19.30
2019,04,08,16,14,19.30
2019,04,08,16,15,19.30
2019,04,08,16,16,22.50
2019,04,08,16,17,25.70
2019,04,08,16,18,24.20
2019,04,08,16,19,20.90
2019,04,08,16,20,19.30
2019,04,08,16,21,20.90
2019,04,08,16,22,22.50
2019,04,08,16,23,20.90
2019,04,08,16,24,20.90
2019,04,08,16,25,22.50
2019,04,08,16,26,19.30
2019,04,08,16,27,20.90
2019,04,08,16,28,19.30
2019,04,08,16,29,19.30
2019,04,08,16,30,20.90
2019,04,08,16,31,22.50
2019,04,08,16,32,17.70
2019,04,08,16,33,19.30
2019,04,08,16,34,17.70
2019,04,08,16,35,14.50
2019,04,08,16,36,20.90
2019,04,08,16,37,25.70
2019,04,08,16,38,22.50
2019,04,08,16,39,27.40
2019,04,08,16,40,22.50
2019,04,08,16,41,22.50
2019,04,08,16,42,20.90
2019,04,08,16,43,19.30
2019,04,08,16,44,24.20
2019,04,08,16,45,24.20
2019,04,08,16,46,20.90
2019,04,08,16,47,22.50
2019,04,08,16,48,24.20
2019,04,08,16,49,22.50
2019,04,08,16,50,22.50
2019,04,08,16,51,19.30
2019,04,08,16,52,20.90
2019,04,08,16,53,19.30
2019,04,08,16,54,25.70
2019,04,08,16,55,25.70
2019,04,08,16,56,17.70
2019,04,08,16,57,24.20
2019,04,08,16,58,24.20
2019,04,08,16,59,22.50
2019,04,08,17,00,17.70
2019,04,08,17,01,20.90
2019,04,08,17,02,19.30
2019,04,08,17,03,19.30
2019,04,08,17,04,14.50
2019,04,08,17,05,22.50
2019,04,08,17,06,20.90
2019,04,08,17,07,17.70
2019,04,08,17,08,17.70
2019,04,08,17,09,17.70
2019,04,08,17,10,16.10
2019,04,08,17,11,16.10
2019,04,08,17,12,16.10
2019,04,08,17,13,16.10
2019,04,08,17,14,14.50
2019,04,08,17,15,16.10
2019,04,08,17,16,17.70
2019,04,08,17,17,14.50
2019,04,08,17,18,14.50
2019,04,08,17,19,16.10
2019,04,08,17,20,12.90
2019,04,08,17,21,17.70
2019,04,08,17,22,19.30
2019,04,08,17,23,14.50
2019,04,08,17,24,19.30
2019,04,08,17,25,20.90
2019,04,08,17,26,19.30
2019,04,08,17,27,16.10
2019,04,08,17,28,17.70
2019,04,08,17,29,19.30
2019,04,08,17,30,16.10
2019,04,08,17,31,17.70
2019,04,08,17,32,19.30
2019,04,08,17,33,20.90
2019,04,08,17,34,20.90
2019,04,08,17,35,17.70
2019,04,08,17,36,19.30
2019,04,08,17,37,17.70
2019,04,08,17,38,16.10
2019,04,08,17,39,19.30
2019,04,08,17,40,14.50
2019,04,08,17,41,12.90
2019,04,08,17,42,14.50
2019,04,08,17,43,9.60
2019,04,08,17,44,14.50
2019,04,08,17,45,14.50
2019,04,08,17,46,9.60
2019,04,08,17,47,14.50
2019,04,08,17,48,14.50
2019,04,08,17,49,14.50
2019,04,08,17,50,12.90
2019,04,08,17,51,11.30
2019,04,08,17,52,14.50
2019,04,08,17,53,11.30
2019,04,08,17,54,11.30
2019,04,08,17,55,11.30
2019,04,08,17,56,12.90
2019,04,08,17,57,9.60
2019,04,08,17,58,12.90
2019,04,08,17,59,12.90
2019,04,08,18,00,12.90
2019,04,08,18,01,12.90
2019,04,08,18,02,12.90
2019,04,08,18,03,11.30
2019,04,08,18,04,12.90
2019,04,08,18,05,12.90
2019,04,08,18,06,11.30
2019,04,08,18,07,11.30
2019,04,08,18,08,11.30
2019,04,08,18,09,11.30
2019,04,08,18,10,12.90
2019,04,08,18,11,9.60
2019,04,08,18,12,9.60
2019,04,08,18,13,11.30
2019,04,08,18,14,9.60
2019,04,08,18,15,9.60
2019,04,08,18,16,8.10
2019,04,08,18,17,8.10
2019,04,08,18,18,8.10
2019,04,08,18,19,6.40
2019,04,08,18,20,6.40
2019,04,08,18,21,6.40
2019,04,08,18,22,6.40
2019,04,08,18,23,8.10
2019,04,08,18,24,9.60
2019,04,08,18,25,8.10
2019,04,08,18,26,8.10
2019,04,08,18,27,9.60
2019,04,08,18,28,8.10
2019,04,08,18,29,6.40
2019,04,08,18,30,4.80
2019,04,08,18,31,4.80
2019,04,08,18,32,6.40
2019,04,08,18,33,4.80
2019,04,08,18,34,4.80
2019,04,08,18,35,4.80
2019,04,08,18,36,4.80
2019,04,08,18,37,4.80
2019,04,08,18,38,4.80
2019,04,08,18,39,6.40
2019,04,08,18,40,8.10
2019,04,08,18,41,8.10
2019,04,08,18,42,4.80
2019,04,08,18,43,8.10
2019,04,08,18,44,8.10
2019,04,08,18,45,6.40
2019,04,08,18,46,6.40
2019,04,08,18,47,6.40
2019,04,08,18,48,8.10
2019,04,08,18,49,8.10
2019,04,08,18,50,6.40
2019,04,08,18,51,6.40
2019,04,08,18,52,6.40
2019,04,08,18,53,4.80
2019,04,08,18,54,9.60
2019,04,08,18,55,9.60
2019,04,08,18,56,6.40
2019,04,08,18,57,6.40
2019,04,08,18,58,6.40
2019,04,08,18,59,4.80
2019,04,08,19,00,6.40
2019,04,08,19,01,4.80
2019,04,08,19,02,4.80
2019,04,08,19,03,4.80
2019,04,08,19,04,6.40
2019,04,08,19,05,4.80
2019,04,08,19,06,4.80
2019,04,08,19,07,4.80
2019,04,08,19,08,4.80
2019,04,08,19,09,3.20
2019,04,08,19,10,4.80
2019,04,08,19,11,3.20
2019,04,08,19,12,4.80
2019,04,08,19,13,4.80
2019,04,08,19,14,3.20
2019,04,08,19,15,3.20
2019,04,08,19,16,3.20
2019,04,08,19,19,1.60
2019,04,08,19,20,3.20
2019,04,08,19,21,1.60
